Regional Weather Roundup
Issued by NWS

Home | Current Version | Previous Version | Graphics & Text | Print | Product List | Glossary Off
Versions: 1 2 3 4 5 6 7 8 9 10 11 12 13 14 15 16 17 18 19 20 21 22 23 24 25 26 27 28 29 30 31 32 33 34 35 36 37 38 39 40 41 42 43 44 45 46 47 48 49 50

000
ASUS45 KBOI 200810
RWRID
WEATHER ROUNDUP FOR IDAHO
NATIONAL WEATHER SERVICE BOISE ID
200 AM MDT WED AUG 20 2014

NOTE: "FAIR" INDICATES FEW OR NO CLOUDS BELOW 12000 FEET
WITH NO SIGNIFICANT WEATHER AND/OR OBSTRUCTIONS TO VISIBILITY

IDZ012-014-200900-
SOUTHWEST IDAHO


CITY           SKY/WX    TMP DP  RH WIND       PRES   REMARKS
BOISE          MOCLDY    72  43  35 SW3       29.79R
CALDWELL       MOCLDY    66  45  45 W9        29.79S
MOUNTAIN HOME  CLOUDY    71  48  44 E6        29.80R
$$

IDZ016-017-200900-
SOUTHCENTRAL IDAHO


CITY           SKY/WX    TMP DP  RH WIND       PRES   REMARKS
BURLEY         MOCLDY    59  51  75 E5        29.87S
JEROME         CLEAR     63  51  65 E13       29.88F
TWIN FALLS     PTCLDY    58  48  69 SE6       29.88F
$$

IDZ019>023-200900-
SOUTHEAST IDAHO


CITY           SKY/WX    TMP DP  RH WIND       PRES   REMARKS
IDAHO FALLS    MOCLDY    53  51  93 NW5       29.93F
POCATELLO      CLEAR     57  55  93 NE3       29.90F
REXBURG        MOCLDY    54  51  90 CALM      29.94F
$$

IDZ006-010-011-018-031-032-200900-
CENTRAL IDAHO MOUNTAINS


CITY           SKY/WX    TMP DP  RH WIND       PRES   REMARKS
MCCALL         PTCLDY    62  42  47 N6        29.89S
HAILEY         MOCLDY    55  52  88 NW9       29.97S
STANLEY          N/A     49  42  77 S5        30.02R
SALMON         CLOUDY    57  52  82 CALM      29.89S
CHALLIS        CLOUDY    56  52  86 VRB6      29.94F
$$

IDZ002-004-006-007-026-200900-
NORTHERN IDAHO


CITY           SKY/WX    TMP DP  RH WIND       PRES   REMARKS
LEWISTON       PTCLDY    74  46  36 SW8       29.70R
LOWELL           N/A     62  61  96 N6        29.79R
COEUR D`ALENE  PTCLDY    61  54  77 E6        29.72F
MULLAN PASS    CLEAR     54  44  69 S8        29.91F
$$


USA.gov is the U.S. government's official web portal to all federal, state and local government web resources and services.